Location: Boston
(42.3580°N, 71.0600°W)
Time: 00:03:12
(UTC-04:00)

Tiangong 2 - Pass Details

Date: 15 October 2017
Orbit: 388 x 392 km, 42.8° (Epoch: 17 October)

Event Time Altitude Azimuth Distance (km) Brightness Sun altitude
Exits shadow 05:35:48 41° 281° (W) 577 1.4 -15.8°
Maximum altitude 05:36:47 83° 4° (N) 397 1.0 -15.6°
Drops below altitude 10° 05:40:00 10° 93° (E) 1,421 5.3 -15.0°
Sets 05:42:05 0° 94° (E) 2,276 6.9 -14.7°
